Location: Czekanka
(50.4925°N, 19.2643°E)
Time: 01:08:37
(UTC+00:00)

ADEOS II - Pass Details

Date: 26 September 2024
Orbit: 795 x 798 km, 98.7° (Epoch: 09 October)

Event Time Altitude Azimuth Distance (km) Brightness Sun altitude
Rises 01:30:39 0° 14° (NNE) 3,311 6.0 -28.4°
Reaches altitude 10° 01:32:59 10° 13° (NNE) 2,377 5.1 -28.1°
Enters shadow 01:37:49 73° 336° (NNW) 837 2.1 -27.5°
